{"data":{"norad_id":63395,"epoch":"2026-09-19T22:47:13.251552Z","epoch_age_seconds":62018,"freshness":"FRESH","line1":"1 63395U 25052BH  26262.94945893  .00002294  00000+0  18546-3 0  9992","line2":"2 63395  97.6658 155.4375 0009163 110.5531 249.6677 15.00751622 82970","mean_motion":15.00751622,"eccentricity":0.0009163,"inclination_deg":97.6658,"raan_deg":155.4375,"arg_perigee_deg":110.5531,"mean_anomaly_deg":249.6677,"bstar":0.00018546,"rev_number":8297,"period_min":95.951920283848,"perigee_km":558.21568716457,"apogee_km":570.93890538392,"semimajor_km":6942.7142962742,"source":"CELESTRAK","updated_at":"2026-09-20T09:00:34.877154Z"}}